[[{"header":{"parameterUnit":"m.s-1","parameterCategory":1,"la1":30.2991,"la2":30.254,"lo1":-89.0895,"lo2":-89.0444,"dy":0.0017,"dx":0.0017,"nx":28,"ny":28,"refTime":"2026-02-25T03:00:00:Z","depth":0,"parameterNumber":2,"parameterNumberName":"U-component_of_WINDS"},"data":[0,0,0,0,0,0,0,0,0,0,0,0,0,0,0,0,0,0,0,0,0,0,0,0,0,0,0,0,0,0,0,0,0,0,0,0,0,0,0,0,0,0,0,0,0,0,0,0,0,0,0,0,0,0,0,0,0,0,-0.4322,-0.4322,0,-0.4255,-0.4255,-0.4254,-0.4223,-0.4223,-0.4223,-0.4223,-0.4149,-0.4147,-0.4145,0,0,0,0,0,0,0,0,0,0,0,0,0,-0.442,-0.4418,-0.4323,-0.4322,-0.4321,-0.4256,-0.4255,-0.4254,-0.4223,-0.4223,-0.4223,-0.4223,-0.415,-0.4148,-0.4145,0,0,0,0,0,0,0,0,0,0,0,0,0,-0.4368,-0.4418,-0.4323,-0.4298,-0.4295,-0.4256,-0.4255,-0.4253,-0.4223,-0.4223,-0.4223,-0.4223,-0.4151,-0.4148,-0.4145,-0.4124,0,0,-0.4136,-0.4134,0,0,0,0,0,0,0,0,-0.4371,-0.4364,-0.4302,-0.4299,-0.4296,-0.4248,-0.4262,-0.421,-0.4223,-0.425,-0.4223,-0.4223,-0.4182,-0.4176,-0.4163,-0.4121,-0.4117,-0.4135,-0.4134,-0.4132,-0.4131,0,0,0,0,0,0,0,-0.4374,-0.4367,-0.4296,-0.4301,-0.4298,-0.4289,-0.4281,-0.4252,-0.4216,-0.4248,-0.4245,-0.4238,-0.418,-0.4166,-0.4161,-0.4116,-0.4135,-0.4133,-0.4131,-0.413,-0.4053,-0.4053,0,0,0,0,0,0,-0.4383,-0.437,-0.4298,-0.4294,-0.4335,-0.4287,-0.4279,-0.4263,-0.4216,-0.4209,-0.4238,-0.4237,-0.4171,-0.4165,-0.4158,-0.4131,-0.4132,-0.4129,-0.4128,-0.4054,-0.4053,-0.4053,0,0,0,0,0,0,-0.4385,-0.4376,-0.4301,-0.4331,-0.4321,-0.4285,-0.4268,-0.4262,-0.4248,-0.4209,-0.4202,-0.4231,-0.4171,-0.4163,-0.4133,-0.4128,-0.4128,-0.4125,-0.4054,-0.4054,-0.4053,-0.4076,0,0,0,0,0,0,-0.4388,-0.4377,-0.437,-0.4331,-0.4319,-0.4278,-0.4267,-0.426,-0.4243,-0.4241,-0.42,-0.4194,-0.4171,-0.4138,-0.413,-0.4124,-0.4123,-0.4054,-0.4054,-0.4053,-0.4076,-0.4077,-0.4078,0,0,0,0,0,-0.4391,-0.4378,-0.437,-0.4361,-0.431,-0.4278,-0.4271,-0.4246,-0.4243,-0.4235,-0.421,-0.4195,-0.413,-0.4135,-0.4126,-0.4119,-0.4054,-0.4054,-0.4053,-0.4075,-0.4076,-0.4078,0,0,0,0,0,0,-0.4415,-0.4372,-0.4363,-0.4337,-0.4312,-0.4273,-0.4261,-0.4248,-0.4221,-0.422,-0.4189,-0.418,-0.4153,-0.4133,-0.4139,-0.4096,-0.4091,-0.4089,-0.411,-0.4111,-0.4112,-0.4117,-0.412,0,0,0,0,0,-0.4418,-0.4397,-0.436,-0.4341,-0.4328,-0.4297,-0.4282,-0.4266,-0.4237,-0.4226,-0.4198,-0.417,-0.4143,-0.4126,-0.4099,-0.4073,-0.4063,-0.4063,-0.4064,-0.4065,-0.4063,-0.4048,-0.4047,-0.4052,-0.4052,-0.4052,0,0,-0.4422,-0.4396,-0.4384,-0.4345,-0.4323,-0.4301,-0.4288,-0.4265,-0.4248,-0.4221,-0.4192,-0.4172,-0.4138,-0.411,-0.4096,-0.4092,-0.406,-0.4065,-0.4066,-0.4063,-0.4047,-0.4047,-0.4047,-0.4051,-0.4051,-0.4051,0,0,-0.4419,-0.4398,-0.4379,-0.4358,-0.4326,-0.4305,-0.4301,-0.4264,-0.425,-0.4221,-0.4201,-0.418,-0.4134,-0.4111,-0.4093,-0.4083,-0.4068,-0.4075,-0.4079,-0.4064,-0.4064,-0.4064,-0.4059,-0.4058,-0.4073,-0.4073,-0.4073,0,-0.4428,-0.4395,-0.4371,-0.4349,-0.4332,-0.431,-0.429,-0.427,-0.423,-0.4218,-0.4215,-0.4159,-0.4134,-0.41,-0.4098,-0.4085,-0.4078,-0.4079,-0.4066,-0.4066,-0.4065,-0.406,-0.4059,-0.4074,-0.4074,-0.4074,-0.4074,0,-0.4408,-0.4385,-0.4374,-0.4338,-0.432,-0.4299,-0.4271,-0.4255,-0.424,-0.422,-0.419,-0.4161,-0.4128,-0.4118,-0.4103,-0.4083,-0.4081,-0.4073,-0.4066,-0.4066,-0.4061,-0.4059,-0.4076,-0.4075,-0.4075,-0.4075,0,0,-0.4416,-0.4369,-0.4365,-0.4348,-0.4312,-0.4293,-0.4271,-0.4241,-0.4228,-0.4201,-0.4182,-0.4145,-0.4137,-0.4117,-0.4098,-0.4086,-0.4079,-0.4078,-0.4077,-0.4079,-0.4054,-0.4061,-0.406,-0.4069,-0.4069,-0.4069,-0.4057,0,-0.4408,-0.4369,-0.4348,-0.4318,-0.4296,-0.4275,-0.4256,-0.4231,-0.4211,-0.4189,-0.4167,-0.4141,-0.4133,-0.4121,-0.4107,-0.4083,-0.4073,-0.4083,-0.405,-0.4049,-0.4058,-0.4057,-0.4063,-0.4054,-0.4055,-0.4055,-0.4055,0,-0.4392,-0.4368,-0.4337,-0.4303,-0.4293,-0.4277,-0.4247,-0.4227,-0.4198,-0.4184,-0.4163,-0.4145,-0.4121,-0.4117,-0.4082,-0.409,-0.4074,-0.406,-0.4059,-0.4055,-0.4051,-0.4052,-0.4051,-0.4049,-0.4052,-0.4052,-0.4052,0,-0.4401,-0.4361,-0.4337,-0.4324,-0.4284,-0.4273,-0.4255,-0.4227,-0.421,-0.4184,-0.4172,-0.4143,-0.4127,-0.4104,-0.4079,-0.4079,-0.4046,-0.4041,-0.4034,-0.4034,-0.4027,-0.4028,-0.4023,-0.4018,-0.4019,-0.4019,-0.4019,0,-0.4394,-0.4375,-0.4341,-0.4326,-0.4304,-0.4279,-0.4258,-0.4239,-0.4214,-0.4194,-0.4173,-0.4155,-0.4123,-0.41,-0.408,-0.4054,-0.4047,-0.4035,-0.4029,-0.4036,-0.4038,-0.4025,-0.4025,-0.4018,-0.4018,-0.4018,-0.4018,0,-0.44,-0.4376,-0.4349,-0.4314,-0.4305,-0.4291,-0.426,-0.4244,-0.4225,-0.42,-0.4193,-0.4161,-0.4133,-0.4106,-0.4068,-0.4055,-0.4029,-0.4022,-0.4039,-0.4036,-0.4031,-0.4031,-0.4017,-0.4014,-0.4013,-0.4013,-0.4013,0,-0.4396,-0.4382,-0.4346,-0.4332,-0.4316,-0.4294,-0.4277,-0.4252,-0.4235,-0.4201,-0.419,-0.4161,-0.4137,-0.4093,-0.4066,-0.4037,-0.4029,-0.4026,-0.4024,-0.4032,-0.4029,-0.403,-0.4028,-0.4027,-0.4027,-0.4027,-0.4027,0,-0.4392,-0.4382,-0.4359,-0.4333,-0.4314,-0.4292,-0.4268,-0.4258,-0.4228,-0.421,-0.4182,-0.4164,-0.4126,-0.4098,-0.4066,-0.4047,-0.4032,-0.4028,-0.4025,-0.4031,-0.4042,-0.4036,-0.4041,-0.4028,-0.4028,-0.4028,-0.4028,-0.4028,-0.4393,-0.4379,-0.4352,-0.4328,-0.4308,-0.4287,-0.4271,-0.425,-0.4227,-0.4196,-0.4182,-0.4154,-0.4126,-0.4082,-0.4063,-0.404,-0.4036,-0.4032,-0.403,-0.4029,-0.4031,-0.4046,-0.4034,-0.4034,-0.4034,-0.4034,-0.4034,0,-0.4388,-0.437,-0.4348,-0.4317,-0.4298,-0.4287,-0.4261,-0.4245,-0.4222,-0.4197,-0.4174,-0.4142,-0.4115,-0.4086,-0.4057,-0.4044,-0.4036,-0.4037,-0.4037,-0.4033,-0.4036,-0.4042,-0.4044,-0.4044,-0.4044,-0.4044,-0.4044,-0.4044,-0.4382,-0.4359,-0.4345,-0.4311,-0.4293,-0.4267,-0.4253,-0.4233,-0.4213,-0.418,-0.4157,-0.414,-0.4113,-0.4082,-0.4056,-0.4048,-0.4038,-0.4041,-0.4031,-0.4034,-0.4033,-0.4032,-0.4037,-0.4039,-0.4039,-0.403,-0.403,-0.4029]},{"header":{"parameterUnit":"m.s-1","parameterCategory":1,"la1":30.2991,"la2":30.254,"lo1":-89.0895,"lo2":-89.0444,"dy":0.0017,"dx":0.0017,"nx":28,"ny":28,"refTime":"2026-02-25T03:00:00:Z","depth":0,"parameterNumber":3,"parameterNumberName":"V-component_of_WINDS"},"data":[0,0,0,0,0,0,0,0,0,0,0,0,0,0,0,0,0,0,0,0,0,0,0,0,0,0,0,0,0,0,0,0,0,0,0,0,0,0,0,0,0,0,0,0,0,0,0,0,0,0,0,0,0,0,0,0,0,0,5.0397,5.0397,0,5.0439,5.0439,5.044,5.0459,5.0459,5.0459,5.0459,5.0497,5.0498,5.0499,0,0,0,0,0,0,0,0,0,0,0,0,0,5.0328,5.033,5.0397,5.0397,5.0398,5.0439,5.0439,5.044,5.0459,5.0459,5.0459,5.0459,5.0497,5.0498,5.0499,0,0,0,0,0,0,0,0,0,0,0,0,0,5.0363,5.033,5.0397,5.0412,5.0414,5.0439,5.0439,5.044,5.0459,5.0459,5.0459,5.0459,5.0496,5.0498,5.0499,5.051,0,0,5.0504,5.0505,0,0,0,0,0,0,0,0,5.0361,5.0365,5.041,5.0411,5.0413,5.0444,5.0429,5.0463,5.0459,5.0442,5.0459,5.0459,5.0479,5.0482,5.049,5.0512,5.0514,5.0504,5.0505,5.0506,5.0506,0,0,0,0,0,0,0,5.0359,5.0364,5.0413,5.041,5.0413,5.0416,5.0421,5.0436,5.046,5.0443,5.0445,5.045,5.048,5.0488,5.0491,5.0514,5.0504,5.0506,5.0507,5.0507,5.0547,5.0547,0,0,0,0,0,0,5.0354,5.0362,5.0412,5.0415,5.0387,5.0417,5.0423,5.0434,5.046,5.0464,5.045,5.045,5.0486,5.0489,5.0492,5.0507,5.0506,5.0507,5.0508,5.0547,5.0547,5.0547,0,0,0,0,0,0,5.0353,5.0359,5.041,5.0389,5.0395,5.0418,5.0431,5.0435,5.0443,5.0465,5.0469,5.0454,5.0486,5.049,5.0506,5.0509,5.0508,5.051,5.0547,5.0547,5.0547,5.0537,0,0,0,0,0,0,5.0351,5.0358,5.0363,5.0389,5.0397,5.0425,5.0431,5.0436,5.0446,5.0448,5.047,5.0474,5.0486,5.0504,5.0508,5.0511,5.0511,5.0547,5.0547,5.0547,5.0537,5.0536,5.0536,0,0,0,0,0,5.0348,5.0357,5.0363,5.0369,5.0404,5.0425,5.0429,5.0445,5.0447,5.0452,5.0465,5.0473,5.0508,5.0505,5.051,5.0514,5.0547,5.0547,5.0547,5.0537,5.0537,5.0536,0,0,0,0,0,0,5.033,5.0361,5.0368,5.0386,5.0403,5.0428,5.0435,5.0444,5.0459,5.0459,5.0476,5.0481,5.0496,5.0506,5.0502,5.0525,5.0528,5.0529,5.0518,5.0518,5.0518,5.0515,5.0512,0,0,0,0,0,5.0328,5.0344,5.037,5.0383,5.0391,5.0412,5.0421,5.0432,5.0449,5.0456,5.0471,5.0486,5.0501,5.051,5.0524,5.0538,5.0543,5.0543,5.0543,5.0542,5.0543,5.0552,5.0552,5.0548,5.0548,5.0548,0,0,5.0324,5.0343,5.0352,5.038,5.0394,5.0409,5.0417,5.0432,5.0443,5.0458,5.0474,5.0486,5.0504,5.0519,5.0526,5.0528,5.0545,5.0543,5.0542,5.0543,5.0552,5.0552,5.0553,5.0549,5.0549,5.0548,0,0,5.0325,5.0341,5.0355,5.0369,5.0392,5.0405,5.0408,5.0432,5.0441,5.0458,5.047,5.0482,5.0506,5.0519,5.0529,5.0535,5.0542,5.0539,5.0537,5.0545,5.0545,5.0545,5.0548,5.0549,5.0539,5.0539,5.0539,0,5.0317,5.0342,5.036,5.0375,5.0387,5.0402,5.0415,5.0428,5.0453,5.046,5.0462,5.0494,5.0507,5.0525,5.0527,5.0534,5.0538,5.0537,5.0544,5.0544,5.0545,5.0547,5.0548,5.0539,5.0539,5.0539,5.0539,0,5.0331,5.0348,5.0356,5.0382,5.0394,5.0408,5.0427,5.0437,5.0447,5.0459,5.0476,5.0493,5.0511,5.0516,5.0525,5.0536,5.0537,5.0541,5.0544,5.0545,5.0547,5.0548,5.0538,5.0538,5.0539,5.0539,0,0,5.0322,5.0359,5.0361,5.0374,5.0399,5.0412,5.0426,5.0446,5.0454,5.047,5.0482,5.0503,5.0507,5.0518,5.0528,5.0535,5.0539,5.0539,5.0539,5.0539,5.0553,5.055,5.0551,5.0544,5.0545,5.0545,5.0552,0,5.0327,5.0355,5.0372,5.0393,5.0408,5.0423,5.0435,5.0452,5.0464,5.0478,5.049,5.0505,5.051,5.0516,5.0524,5.0537,5.0543,5.0537,5.0555,5.0555,5.0551,5.0553,5.0549,5.0555,5.0553,5.0553,5.0553,0,5.0337,5.0355,5.0378,5.0403,5.041,5.0421,5.0441,5.0454,5.0472,5.0481,5.0493,5.0504,5.0518,5.0519,5.0539,5.0535,5.0543,5.055,5.0551,5.0553,5.0555,5.0555,5.0557,5.0558,5.0555,5.0555,5.0555,0,5.0328,5.0358,5.0377,5.0386,5.0416,5.0423,5.0435,5.0454,5.0465,5.0481,5.0488,5.0505,5.0514,5.0527,5.0541,5.0541,5.0559,5.0562,5.0566,5.0565,5.0569,5.0569,5.0573,5.0574,5.0574,5.0574,5.0574,0,5.0332,5.0346,5.0374,5.0385,5.04,5.0418,5.0432,5.0445,5.0462,5.0475,5.0487,5.0499,5.0517,5.053,5.0541,5.0555,5.0559,5.0566,5.0569,5.0565,5.0564,5.0571,5.0571,5.0574,5.0574,5.0574,5.0574,0,5.0326,5.0345,5.0366,5.0392,5.0399,5.0409,5.0431,5.0442,5.0455,5.0471,5.0475,5.0495,5.0512,5.0527,5.0548,5.0556,5.057,5.0574,5.0565,5.0567,5.057,5.057,5.0579,5.0581,5.058,5.058,5.058,0,5.0328,5.0339,5.0367,5.0378,5.039,5.0407,5.0419,5.0436,5.0448,5.047,5.0478,5.0495,5.0511,5.0535,5.0551,5.0567,5.0571,5.0573,5.0574,5.057,5.0572,5.0571,5.0572,5.0573,5.0573,5.0573,5.0573,0,5.0329,5.0338,5.0356,5.0377,5.0391,5.0408,5.0425,5.0432,5.0453,5.0465,5.0483,5.0495,5.0517,5.0534,5.0552,5.0563,5.0571,5.0573,5.0575,5.0571,5.0566,5.057,5.0564,5.0572,5.0572,5.0573,5.0573,5.0573,5.0327,5.0338,5.036,5.0379,5.0394,5.041,5.0422,5.0437,5.0453,5.0474,5.0483,5.0501,5.0519,5.0544,5.0555,5.0568,5.057,5.0573,5.0574,5.0574,5.0574,5.0564,5.0571,5.0571,5.0571,5.0572,5.0572,0,5.0329,5.0345,5.0362,5.0387,5.0402,5.041,5.0429,5.044,5.0457,5.0474,5.0489,5.0509,5.0526,5.0543,5.056,5.0568,5.0572,5.0572,5.0571,5.0574,5.0571,5.0568,5.0568,5.0568,5.0568,5.0568,5.0568,5.0568,5.0333,5.0352,5.0364,5.039,5.0404,5.0424,5.0434,5.0449,5.0462,5.0485,5.05,5.0512,5.0528,5.0547,5.0562,5.0567,5.0573,5.0571,5.0577,5.0574,5.0574,5.0574,5.0571,5.0572,5.0572,5.0579,5.0579,5.0579]}]]